• In Portugal
  • List of Countries
  • For 7 days
  • Water Temperature
  • Satellite Maps
  • Weather Map
  • Weather Widgets
  • user-avatar
    Login

    Hourly Weather Ramadi

    Today, 24 January, Wednesday

    Time Temperature Precipitation Wind Pressure Humidity
    00:00 +16°C° 0 mm 2 mps 755 mmHg 30%
    01:00 +15°C° 0 mm 2 mps 755 mmHg 35%
    02:00 +15°C° 0 mm 2 mps 755 mmHg 39%
    03:00 +13°C° 0 mm 3 mps 755 mmHg 44%
    04:00 +13°C° 0 mm 3 mps 756 mmHg 49%
    05:00 +13°C° 0 mm 3 mps 756 mmHg 53%
    06:00 +12°C° 0 mm 3 mps 756 mmHg 57%
    07:00 +13°C° 0 mm 3 mps 756 mmHg 56%
    08:00 +15°C° 0 mm 2 mps 757 mmHg 55%
    09:00 +15°C° 0 mm 2 mps 757 mmHg 54%
    10:00 +17°C° 0 mm 2 mps 757 mmHg 50%
    11:00 +18°C° 0 mm 2 mps 757 mmHg 46%
    12:00 +19°C° 0 mm 2 mps 757 mmHg 42%
    13:00 +20°C° 0 mm 2 mps 757 mmHg 40%
    14:00 +20°C° 0 mm 2 mps 756 mmHg 38%
    15:00 +21°C° 0 mm 3 mps 756 mmHg 36%
    16:00 +20°C° 0 mm 2 mps 756 mmHg 38%
    17:00 +19°C° 0 mm 2 mps 756 mmHg 39%
    18:00 +18°C° 0 mm 2 mps 756 mmHg 41%
    19:00 +18°C° 0 mm 2 mps 757 mmHg 43%
    20:00 +18°C° 0 mm 2 mps 757 mmHg 44%
    21:00 +17°C° 0 mm 3 mps 757 mmHg 46%
    22:00 +17°C° 0 mm 3 mps 757 mmHg 47%
    23:00 +16°C° 0 mm 3 mps 757 mmHg 49%

    Tomorrow, 25 January, Thursday

    Time Temperature Precipitation Wind Pressure Humidity
    00:00 +16°C° 0 mm 3 mps 757 mmHg 51%
    01:00 +16°C° 0 mm 3 mps 756 mmHg 51%
    02:00 +16°C° 0 mm 3 mps 756 mmHg 52%
    03:00 +14°C° 0 mm 3 mps 756 mmHg 53%
    04:00 +14°C° 0 mm 3 mps 756 mmHg 53%
    05:00 +14°C° 0 mm 3 mps 756 mmHg 54%
    06:00 +14°C° 0 mm 3 mps 756 mmHg 55%
    07:00 +14°C° 0 mm 4 mps 756 mmHg 51%
    08:00 +15°C° 0 mm 4 mps 756 mmHg 48%
    09:00 +17°C° 0 mm 4 mps 756 mmHg 44%
    10:00 +17°C° 0 mm 5 mps 756 mmHg 39%
    11:00 +20°C° 0 mm 6 mps 755 mmHg 33%
    12:00 +22°C° 0 mm 6 mps 755 mmHg 28%
    13:00 +22°C° 0 mm 6 mps 754 mmHg 27%
    14:00 +23°C° 0 mm 6 mps 753 mmHg 26%
    15:00 +23°C° 0 mm 6 mps 752 mmHg 25%
    16:00 +22°C° 0 mm 5 mps 752 mmHg 27%
    17:00 +21°C° 0 mm 4 mps 752 mmHg 28%
    18:00 +21°C° 0 mm 4 mps 751 mmHg 29%
    19:00 +20°C° 0.1 mm 4 mps 751 mmHg 32%
    20:00 +20°C° 0.1 mm 4 mps 751 mmHg 34%
    21:00 +19°C° 0.1 mm 4 mps 751 mmHg 37%
    22:00 +19°C° 0.2 mm 5 mps 751 mmHg 38%
    23:00 +17°C° 0.2 mm 5 mps 751 mmHg 40%

    Day after tomorrow, 26 January, Friday

    Time Temperature Precipitation Wind Pressure Humidity
    00:00 +17°C° 0.2 mm 6 mps 751 mmHg 42%
    01:00 +16°C° 0 mm 6 mps 751 mmHg 43%
    02:00 +15°C° 0 mm 6 mps 751 mmHg 45%
    03:00 +15°C° 0 mm 6 mps 752 mmHg 47%
    04:00 +14°C° 0 mm 6 mps 752 mmHg 50%
    05:00 +14°C° 0 mm 6 mps 753 mmHg 54%
    06:00 +13°C° 0 mm 6 mps 753 mmHg 58%
    07:00 +14°C° 0 mm 6 mps 754 mmHg 56%
    08:00 +14°C° 0 mm 6 mps 755 mmHg 55%
    09:00 +14°C° 0 mm 6 mps 755 mmHg 53%
    10:00 +15°C° 0 mm 5 mps 756 mmHg 47%
    11:00 +16°C° 0 mm 5 mps 756 mmHg 41%
    12:00 +18°C° 0 mm 4 mps 756 mmHg 34%
    13:00 +17°C° 0 mm 5 mps 756 mmHg 31%
    14:00 +19°C° 0 mm 5 mps 755 mmHg 28%
    15:00 +19°C° 0 mm 5 mps 755 mmHg 25%
    16:00 +18°C° 0 mm 4 mps 755 mmHg 27%
    17:00 +18°C° 0 mm 3 mps 755 mmHg 29%
    18:00 +17°C° 0 mm 2 mps 755 mmHg 30%
    19:00 +16°C° 0 mm 2 mps 756 mmHg 31%
    20:00 +16°C° 0 mm 3 mps 756 mmHg 32%
    21:00 +16°C° 0 mm 3 mps 756 mmHg 33%
    22:00 +14°C° 0 mm 3 mps 756 mmHg 33%
    23:00 +14°C° 0 mm 4 mps 757 mmHg 33%

    27 January, Saturday

    Time Temperature Precipitation Wind Pressure Humidity
    00:00 +13°C° 0 mm 4 mps 757 mmHg 33%
    01:00 +13°C° 0 mm 4 mps 757 mmHg 35%
    02:00 +12°C° 0 mm 4 mps 757 mmHg 36%
    03:00 +12°C° 0 mm 4 mps 757 mmHg 38%
    04:00 +11°C° 0 mm 4 mps 757 mmHg 41%
    05:00 +11°C° 0 mm 4 mps 757 mmHg 44%
    06:00 +10°C° 0 mm 4 mps 757 mmHg 46%
    07:00 +11°C° 0 mm 4 mps 757 mmHg 45%
    08:00 +11°C° 0 mm 4 mps 758 mmHg 44%
    09:00 +12°C° 0 mm 4 mps 758 mmHg 43%
    10:00 +13°C° 0 mm 3 mps 758 mmHg 42%
    11:00 +14°C° 0 mm 3 mps 758 mmHg 40%
    12:00 +16°C° 0 mm 2 mps 758 mmHg 39%
    13:00 +16°C° 0 mm 2 mps 758 mmHg 38%
    14:00 +16°C° 0 mm 2 mps 758 mmHg 37%
    15:00 +17°C° 0 mm 2 mps 757 mmHg 36%
    16:00 +16°C° 0 mm 3 mps 758 mmHg 38%
    17:00 +16°C° 0 mm 3 mps 758 mmHg 41%
    18:00 +14°C° 0 mm 3 mps 758 mmHg 43%
    19:00 +14°C° 0.1 mm 3 mps 759 mmHg 46%
    20:00 +13°C° 0.1 mm 3 mps 759 mmHg 50%
    21:00 +13°C° 0.1 mm 3 mps 760 mmHg 53%
    22:00 +13°C° 0 mm 3 mps 760 mmHg 54%
    23:00 +12°C° 0 mm 3 mps 760 mmHg 56%

    28 January, Sunday

    Time Temperature Precipitation Wind Pressure Humidity
    00:00 +12°C° 0 mm 3 mps 760 mmHg 58%
    01:00 +11°C° 0 mm 4 mps 760 mmHg 59%
    02:00 +11°C° 0 mm 4 mps 760 mmHg 61%
    03:00 +11°C° 0 mm 4 mps 760 mmHg 62%
    04:00 +10°C° 0 mm 4 mps 760 mmHg 63%
    05:00 +10°C° 0 mm 4 mps 760 mmHg 63%
    06:00 +9°C° 0 mm 5 mps 761 mmHg 64%
    07:00 +10°C° 0 mm 5 mps 761 mmHg 60%
    08:00 +11°C° 0 mm 6 mps 761 mmHg 57%
    09:00 +11°C° 0 mm 6 mps 762 mmHg 53%
    10:00 +14°C° 0 mm 7 mps 762 mmHg 48%
    11:00 +15°C° 0 mm 7 mps 762 mmHg 42%
    12:00 +16°C° 0 mm 7 mps 761 mmHg 37%
    13:00 +17°C° 0 mm 8 mps 761 mmHg 35%
    14:00 +17°C° 0 mm 8 mps 761 mmHg 33%
    15:00 +17°C° 0 mm 8 mps 760 mmHg 31%
    16:00 +17°C° 0 mm 7 mps 760 mmHg 32%
    17:00 +16°C° 0 mm 6 mps 760 mmHg 34%
    18:00 +15°C° 0 mm 5 mps 761 mmHg 35%
    19:00 +15°C° 0 mm 5 mps 761 mmHg 36%
    20:00 +14°C° 0 mm 5 mps 761 mmHg 38%
    21:00 +14°C° 0 mm 5 mps 761 mmHg 40%
    22:00 +13°C° 0 mm 5 mps 761 mmHg 40%
    23:00 +13°C° 0 mm 5 mps 761 mmHg 40%

    29 January, Monday

    Time Temperature Precipitation Wind Pressure Humidity
    00:00 +12°C° 0 mm 5 mps 761 mmHg 40%
    01:00 +12°C° 0 mm 5 mps 761 mmHg 40%
    02:00 +10°C° 0 mm 5 mps 761 mmHg 41%
    03:00 +10°C° 0 mm 5 mps 760 mmHg 42%
    04:00 +10°C° 0 mm 5 mps 761 mmHg 43%
    05:00 +9°C° 0 mm 5 mps 761 mmHg 43%
    06:00 +9°C° 0 mm 5 mps 761 mmHg 44%
    07:00 +10°C° 0 mm 5 mps 761 mmHg 42%
    08:00 +10°C° 0 mm 5 mps 761 mmHg 41%
    09:00 +12°C° 0 mm 5 mps 762 mmHg 39%
    10:00 +13°C° 0 mm 5 mps 762 mmHg 36%
    11:00 +14°C° 0 mm 5 mps 761 mmHg 33%
    12:00 +16°C° 0 mm 6 mps 761 mmHg 30%
    13:00 +16°C° 0 mm 6 mps 761 mmHg 29%
    14:00 +16°C° 0 mm 6 mps 760 mmHg 28%
    15:00 +17°C° 0 mm 5 mps 760 mmHg 27%
    16:00 +16°C° 0 mm 5 mps 760 mmHg 29%
    17:00 +15°C° 0 mm 4 mps 760 mmHg 31%
    18:00 +14°C° 0 mm 3 mps 760 mmHg 33%
    19:00 +14°C° 0 mm 4 mps 760 mmHg 34%
    20:00 +13°C° 0 mm 4 mps 760 mmHg 35%
    21:00 +13°C° 0 mm 4 mps 760 mmHg 37%
    22:00 +12°C° 0 mm 4 mps 760 mmHg 37%
    23:00 +12°C° 0 mm 4 mps 760 mmHg 38%
    Show more